This is the latest recevied weather packets stored in our database for station/object KQ4OSL. If no packets are shown the sender has not sent any weather packets the latest 10 day(s).
| Time | Temp. | Humidity | Pressure | Rain* | Wind** | Luminosity | Snow |
|---|---|---|---|---|---|---|---|
| 1777736788 | 17.22° C | 57% | 1015.2 hPa | 0 mm | - | 703 W/m² | - |
| 1777736160 | 16.67° C | 60% | 1015 hPa | 0 mm | - | 515 W/m² | - |
| 1777735857 | 16.11° C | 60% | 1015 hPa | 0 mm | - | 303 W/m² | - |
| 1777735554 | 16.67° C | 60% | 1015 hPa | 0 mm | - | 475 W/m² | - |
| 1777735251 | 16.67° C | 60% | 1015 hPa | 0 mm | - | 682 W/m² | - |
| 1777734949 | 16.67° C | 62% | 1015.3 hPa | 0 mm | - | 662 W/m² | - |
| 1777734646 | 16.11° C | 61% | 1015.3 hPa | 0 mm | - | 677 W/m² | - |
| 1777734343 | 16.11° C | 65% | 1015.1 hPa | 0 mm | - | 527 W/m² | - |
| 1777734039 | 15.56° C | 67% | 1015.1 hPa | 0 mm | - | 712 W/m² | - |
| 1777733736 | 15° C | 70% | 1015.2 hPa | 0 mm | - | 556 W/m² | - |
| 1777733432 | 15° C | 71% | 1015.2 hPa | 0 mm | - | 423 W/m² | - |
| 1777733129 | 13.89° C | 73% | 1015.1 hPa | 0 mm | - | 341 W/m² | - |
| 1777732826 | 13.33° C | 72% | 1015.3 hPa | 0 mm | - | 331 W/m² | - |
| 1777732522 | 13.33° C | 76% | 1015 hPa | 0 mm | - | 304 W/m² | - |
| 1777732220 | 12.78° C | 74% | 1014.9 hPa | 0 mm | - | 292 W/m² | - |
| 1777731917 | 12.78° C | 76% | 1014.9 hPa | 0 mm | - | 225 W/m² | - |
| 1777731614 | 12.22° C | 74% | 1014.9 hPa | 0 mm | - | 192 W/m² | - |
| 1777731311 | 12.22° C | 75% | 1014.8 hPa | 0 mm | - | 159 W/m² | - |
| 1777731009 | 12.22° C | 76% | 1014.9 hPa | 0 mm | - | 146 W/m² | - |
| 1777730707 | 12.78° C | 75% | 1014.8 hPa | 0 mm | - | 123 W/m² | - |
| 1777730403 | 12.78° C | 75% | 1014.7 hPa | 0 mm | - | 115 W/m² | - |
| 1777730099 | 12.78° C | 75% | 1014.7 hPa | 0 mm | - | 238 W/m² | - |
| 1777729795 | 12.22° C | 77% | 1014.7 hPa | 0 mm | - | 255 W/m² | - |
| 1777729492 | 11.67° C | 77% | 1014.7 hPa | 0 mm | - | 153 W/m² | - |
| 1777729189 | 11.67° C | 77% | 1014.6 hPa | 0 mm | - | 110 W/m² | - |
* Rain latest hour (hover to see other rain measurements)
** Current wind speed in m/s (hover to see current wind gust speed)